GLD043 SBPJ-SBSN

Flight info

Callsign GLD043
Flight time 1h 55m
Altitude 38000
Route OPNUP UL576 SUDRO UZ9 RONUB UL452 DARBU DCT
Aircraft A319/M-SDFGIRY/S

Departure

Time 2026-04-29 17:27
Airport Brigadeiro Lysias Rodrigues Airport (SBPJ)

Arrival

Time 2026-04-29 19:22
Airport Santarém - Maestro Wilson Fonseca International Airport (SBSN)
Time Latitude Longitude Altitude Speed Heading
2026-04-29 16:46 -10.29491 -48.35735 781 ft 0 kts 213°
2026-04-29 17:12 -10.29490 -48.35733 781 ft 1 kts 213°
2026-04-29 17:12 -10.29486 -48.35731 781 ft 0 kts 213°
2026-04-29 17:13 -10.29476 -48.35725 781 ft 2 kts 201°
2026-04-29 17:13 -10.29465 -48.35722 781 ft 2 kts 190°
2026-04-29 17:13 -10.29454 -48.35721 781 ft 2 kts 179°
2026-04-29 17:13 -10.29442 -48.35722 781 ft 2 kts 167°
2026-04-29 17:14 -10.29429 -48.35726 781 ft 2 kts 153°
2026-04-29 17:14 -10.29418 -48.35733 781 ft 2 kts 140°
2026-04-29 17:14 -10.29410 -48.35742 781 ft 2 kts 128°
2026-04-29 17:14 -10.29407 -48.35746 781 ft 2 kts 123°
2026-04-29 17:15 -10.29404 -48.35750 781 ft 0 kts 122°
2026-04-29 17:18 -10.29406 -48.35747 781 ft 1 kts 122°
2026-04-29 17:18 -10.29410 -48.35741 781 ft 2 kts 123°
2026-04-29 17:18 -10.29419 -48.35727 781 ft 4 kts 123°
2026-04-29 17:18 -10.29433 -48.35705 781 ft 7 kts 124°
2026-04-29 17:19 -10.29456 -48.35673 781 ft 6 kts 125°
2026-04-29 17:19 -10.29467 -48.35644 781 ft 7 kts 82°
2026-04-29 17:19 -10.29440 -48.35613 781 ft 9 kts 34°
2026-04-29 17:19 -10.29396 -48.35583 781 ft 10 kts 33°
2026-04-29 17:20 -10.29370 -48.35566 781 ft 0 kts 33°
2026-04-29 17:22 -10.29365 -48.35562 781 ft 4 kts 33°
2026-04-29 17:22 -10.29337 -48.35544 781 ft 8 kts 33°
2026-04-29 17:22 -10.29303 -48.35512 781 ft 10 kts 68°
2026-04-29 17:22 -10.29315 -48.35460 781 ft 11 kts 122°
2026-04-29 17:23 -10.29349 -48.35406 781 ft 14 kts 123°
2026-04-29 17:23 -10.29396 -48.35336 781 ft 18 kts 124°
2026-04-29 17:23 -10.29454 -48.35249 781 ft 21 kts 124°
2026-04-29 17:23 -10.29515 -48.35154 781 ft 22 kts 123°
2026-04-29 17:24 -10.29576 -48.35059 781 ft 22 kts 123°
2026-04-29 17:24 -10.29636 -48.34968 781 ft 20 kts 124°
2026-04-29 17:24 -10.29684 -48.34895 781 ft 14 kts 123°
2026-04-29 17:24 -10.29717 -48.34834 781 ft 11 kts 108°
2026-04-29 17:25 -10.29718 -48.34787 781 ft 8 kts 80°
2026-04-29 17:25 -10.29729 -48.34749 781 ft 7 kts 148°
2026-04-29 17:25 -10.29760 -48.34753 781 ft 5 kts 224°
2026-04-29 17:25 -10.29762 -48.34773 781 ft 5 kts 292°
2026-04-29 17:26 -10.29750 -48.34793 781 ft 0 kts 303°
2026-04-29 17:26 -10.29722 -48.34836 781 ft 33 kts 303°
2026-04-29 17:26 -10.29547 -48.35106 781 ft 90 kts 303°
2026-04-29 17:27 -10.29221 -48.35605 782 ft 140 kts 303°
2026-04-29 17:27 -10.28750 -48.36328 876 ft 175 kts 303°
2026-04-29 17:27 -10.28240 -48.37109 1557 ft 170 kts 303°
2026-04-29 17:27 -10.27738 -48.37879 2201 ft 172 kts 303°
2026-04-29 17:28 -10.27197 -48.38708 2826 ft 176 kts 303°
2026-04-29 17:28 -10.26620 -48.39589 3291 ft 188 kts 304°
2026-04-29 17:28 -10.25993 -48.40544 3757 ft 201 kts 304°
2026-04-29 17:28 -10.25303 -48.41482 4238 ft 214 kts 315°
2026-04-29 17:29 -10.24361 -48.42220 4735 ft 227 kts 332°
2026-04-29 17:29 -10.23221 -48.42648 5218 ft 239 kts 347°
2026-04-29 17:29 -10.21946 -48.42887 5714 ft 252 kts 351°
2026-04-29 17:30 -10.19636 -48.43407 6552 ft 273 kts 339°
2026-04-29 17:30 -10.17888 -48.44158 7369 ft 282 kts 336°
2026-04-29 17:30 -10.16561 -48.44751 8041 ft 285 kts 337°
2026-04-29 17:30 -10.15654 -48.45153 8492 ft 288 kts 337°
2026-04-29 17:31 -10.14254 -48.45769 9172 ft 291 kts 337°
2026-04-29 17:31 -10.12803 -48.46401 9852 ft 294 kts 338°
2026-04-29 17:31 -10.11298 -48.47052 10490 ft 300 kts 338°
2026-04-29 17:31 -10.09191 -48.47957 11324 ft 307 kts 338°
2026-04-29 17:32 -10.08068 -48.48439 11786 ft 310 kts 338°
2026-04-29 17:32 -10.06428 -48.49141 12449 ft 314 kts 338°
2026-04-29 17:32 -10.04814 -48.49832 13077 ft 318 kts 338°
2026-04-29 17:32 -10.03097 -48.50566 13721 ft 322 kts 338°
2026-04-29 17:33 -10.00811 -48.51542 14552 ft 327 kts 338°
2026-04-29 17:33 -9.99672 -48.52028 14955 ft 329 kts 338°
2026-04-29 17:33 -9.97924 -48.52774 15559 ft 332 kts 339°
2026-04-29 17:33 -9.96194 -48.53513 16140 ft 336 kts 339°
2026-04-29 17:34 -9.93766 -48.54548 16926 ft 340 kts 339°
2026-04-29 17:34 -9.91870 -48.55357 17519 ft 344 kts 339°
2026-04-29 17:34 -9.90612 -48.55893 17902 ft 346 kts 339°
2026-04-29 17:34 -9.88759 -48.56683 18455 ft 349 kts 339°
2026-04-29 17:35 -9.85512 -48.58060 19385 ft 355 kts 339°
2026-04-29 17:35 -9.82905 -48.59169 20098 ft 359 kts 339°
2026-04-29 17:35 -9.80963 -48.59995 20610 ft 363 kts 339°
2026-04-29 17:36 -9.78934 -48.60860 21127 ft 366 kts 339°
2026-04-29 17:36 -9.76397 -48.61942 21751 ft 370 kts 339°
2026-04-29 17:36 -9.74995 -48.62540 22085 ft 372 kts 339°
2026-04-29 17:36 -9.72945 -48.63413 22562 ft 375 kts 339°
2026-04-29 17:37 -9.70052 -48.64646 23206 ft 380 kts 338°
2026-04-29 17:37 -9.68641 -48.65281 23512 ft 382 kts 336°
2026-04-29 17:37 -9.65901 -48.66690 24097 ft 387 kts 334°
2026-04-29 17:37 -9.64537 -48.67425 24383 ft 389 kts 333°
2026-04-29 17:38 -9.61760 -48.68929 24944 ft 392 kts 333°
2026-04-29 17:38 -9.59715 -48.70034 25341 ft 395 kts 333°
2026-04-29 17:38 -9.57556 -48.71196 25748 ft 398 kts 333°
2026-04-29 17:38 -9.56118 -48.71969 26011 ft 400 kts 333°
2026-04-29 17:39 -9.53916 -48.73150 26405 ft 403 kts 333°
2026-04-29 17:39 -9.51806 -48.74281 26770 ft 405 kts 333°
2026-04-29 17:39 -9.49573 -48.75476 27143 ft 408 kts 333°
2026-04-29 17:39 -9.47393 -48.76643 27498 ft 410 kts 333°
2026-04-29 17:40 -9.45157 -48.77840 27854 ft 413 kts 333°
2026-04-29 17:40 -9.42907 -48.79043 28200 ft 415 kts 333°
2026-04-29 17:40 -9.40660 -48.80245 28534 ft 418 kts 333°
2026-04-29 17:40 -9.37720 -48.81818 28957 ft 421 kts 333°
2026-04-29 17:41 -9.36189 -48.82636 29173 ft 423 kts 333°
2026-04-29 17:41 -9.33111 -48.84281 29593 ft 426 kts 333°
2026-04-29 17:41 -9.30871 -48.85479 29888 ft 428 kts 333°
2026-04-29 17:41 -9.28602 -48.86692 30179 ft 430 kts 333°
2026-04-29 17:42 -9.27100 -48.87494 30369 ft 431 kts 333°
2026-04-29 17:42 -9.24883 -48.88678 30644 ft 433 kts 333°
2026-04-29 17:42 -9.21887 -48.90278 31002 ft 436 kts 333°
2026-04-29 17:42 -9.20383 -48.91082 31179 ft 437 kts 333°
2026-04-29 17:43 -9.18090 -48.92306 31444 ft 439 kts 333°
2026-04-29 17:43 -9.15057 -48.93909 31782 ft 442 kts 334°
2026-04-29 17:43 -9.12847 -48.95031 32019 ft 443 kts 334°
2026-04-29 17:43 -9.11316 -48.95799 32180 ft 445 kts 334°
2026-04-29 17:44 -9.09010 -48.96950 32421 ft 446 kts 334°
2026-04-29 17:44 -9.06753 -48.98077 32665 ft 447 kts 334°
2026-04-29 17:44 -9.04483 -48.99212 32913 ft 448 kts 334°
2026-04-29 17:44 -9.02152 -49.00378 33167 ft 449 kts 334°
2026-04-29 17:45 -8.99034 -49.01941 33499 ft 450 kts 333°
2026-04-29 17:45 -8.97463 -49.02729 33662 ft 450 kts 333°
2026-04-29 17:45 -8.94345 -49.04295 33977 ft 451 kts 333°
2026-04-29 17:45 -8.91990 -49.05478 34199 ft 452 kts 333°
2026-04-29 17:46 -8.90411 -49.06272 34342 ft 453 kts 333°
2026-04-29 17:46 -8.88357 -49.07302 34521 ft 454 kts 333°
2026-04-29 17:46 -8.86137 -49.08412 34709 ft 455 kts 333°
2026-04-29 17:46 -8.83922 -49.09518 34894 ft 456 kts 333°
2026-04-29 17:47 -8.80933 -49.11013 35134 ft 457 kts 333°
2026-04-29 17:47 -8.79432 -49.11765 35254 ft 458 kts 333°
2026-04-29 17:47 -8.76366 -49.13302 35507 ft 459 kts 333°
2026-04-29 17:47 -8.73997 -49.14490 35754 ft 458 kts 333°
2026-04-29 17:48 -8.72431 -49.15276 35919 ft 457 kts 333°
2026-04-29 17:48 -8.70242 -49.16374 36145 ft 456 kts 333°
2026-04-29 17:48 -8.67386 -49.17807 36425 ft 455 kts 333°
2026-04-29 17:48 -8.65904 -49.18551 36559 ft 454 kts 333°
2026-04-29 17:49 -8.63556 -49.19729 36756 ft 454 kts 333°
2026-04-29 17:49 -8.61227 -49.20897 36939 ft 454 kts 333°
2026-04-29 17:49 -8.58125 -49.22454 37170 ft 454 kts 333°
2026-04-29 17:49 -8.55806 -49.23617 37334 ft 454 kts 333°
2026-04-29 17:50 -8.53524 -49.24762 37490 ft 454 kts 333°
2026-04-29 17:50 -8.51950 -49.25551 37598 ft 454 kts 333°
2026-04-29 17:50 -8.48828 -49.27117 37802 ft 454 kts 333°
2026-04-29 17:51 -8.44080 -49.29500 37901 ft 455 kts 333°
2026-04-29 17:51 -8.39478 -49.31809 37907 ft 459 kts 333°
2026-04-29 17:52 -8.34623 -49.34246 37897 ft 467 kts 333°
2026-04-29 17:52 -8.29708 -49.36702 37910 ft 473 kts 332°
2026-04-29 17:53 -8.24595 -49.39262 37914 ft 478 kts 333°
2026-04-29 17:53 -8.20329 -49.41408 37928 ft 478 kts 333°
2026-04-29 17:54 -8.14334 -49.44415 37956 ft 478 kts 333°
2026-04-29 17:54 -8.09314 -49.46935 37978 ft 478 kts 332°
2026-04-29 17:55 -8.04012 -49.49634 37993 ft 478 kts 332°
2026-04-29 17:55 -7.98665 -49.52358 38002 ft 478 kts 332°
2026-04-29 17:56 -7.93335 -49.55072 38008 ft 478 kts 332°
2026-04-29 17:56 -7.88343 -49.57610 38010 ft 477 kts 332°
2026-04-29 17:57 -7.83227 -49.60198 38013 ft 477 kts 332°
2026-04-29 17:57 -7.78214 -49.62741 38014 ft 478 kts 332°
2026-04-29 17:58 -7.72985 -49.65402 38014 ft 478 kts 332°
2026-04-29 17:58 -7.67966 -49.67989 38013 ft 477 kts 330°
2026-04-29 17:59 -7.63338 -49.71097 38014 ft 476 kts 319°
2026-04-29 17:59 -7.59508 -49.74902 38014 ft 474 kts 308°
2026-04-29 18:00 -7.56418 -49.79441 38014 ft 472 kts 297°
2026-04-29 18:00 -7.54180 -49.84310 38015 ft 470 kts 291°
2026-04-29 18:01 -7.51999 -49.89607 38015 ft 470 kts 290°
2026-04-29 18:01 -7.49727 -49.95105 38015 ft 470 kts 291°
2026-04-29 18:02 -7.47447 -50.00563 38015 ft 470 kts 291°
2026-04-29 18:02 -7.45157 -50.06016 38015 ft 470 kts 291°
2026-04-29 18:03 -7.42915 -50.11347 38015 ft 470 kts 291°
2026-04-29 18:03 -7.40628 -50.16779 38015 ft 470 kts 291°
2026-04-29 18:04 -7.38341 -50.22209 38015 ft 470 kts 291°
2026-04-29 18:04 -7.36071 -50.27597 38015 ft 470 kts 291°
2026-04-29 18:05 -7.33774 -50.33047 38015 ft 470 kts 291°
2026-04-29 18:05 -7.31540 -50.38344 38015 ft 470 kts 291°
2026-04-29 18:06 -7.29256 -50.43761 38015 ft 470 kts 291°
2026-04-29 18:06 -7.27033 -50.49026 38015 ft 470 kts 291°
2026-04-29 18:07 -7.24815 -50.54281 38015 ft 470 kts 291°
2026-04-29 18:07 -7.22583 -50.59567 38015 ft 470 kts 291°
2026-04-29 18:08 -7.20329 -50.64902 38015 ft 470 kts 291°
2026-04-29 18:08 -7.18247 -50.69844 38015 ft 470 kts 291°
2026-04-29 18:09 -7.16138 -50.74846 38015 ft 470 kts 291°
2026-04-29 18:09 -7.14008 -50.79887 38014 ft 470 kts 291°
2026-04-29 18:10 -7.11775 -50.85172 38007 ft 470 kts 291°
2026-04-29 18:10 -7.09493 -50.90567 38000 ft 470 kts 291°
2026-04-29 18:11 -7.07221 -50.95937 37996 ft 471 kts 291°
2026-04-29 18:11 -7.04923 -51.01361 37993 ft 471 kts 291°
2026-04-29 18:12 -7.02622 -51.06789 37992 ft 472 kts 292°
2026-04-29 18:12 -7.00289 -51.12293 37991 ft 472 kts 292°
2026-04-29 18:13 -6.98004 -51.17675 37990 ft 472 kts 292°
2026-04-29 18:13 -6.95787 -51.22894 37990 ft 472 kts 292°
2026-04-29 18:14 -6.93445 -51.28408 37990 ft 472 kts 292°
2026-04-29 18:14 -6.91192 -51.33708 37990 ft 472 kts 292°
2026-04-29 18:15 -6.88964 -51.38935 37990 ft 472 kts 292°
2026-04-29 18:15 -6.86769 -51.44045 37990 ft 472 kts 292°
2026-04-29 18:16 -6.84555 -51.49231 37990 ft 472 kts 292°
2026-04-29 18:16 -6.82271 -51.54601 37990 ft 472 kts 292°
2026-04-29 18:17 -6.79985 -51.59983 37990 ft 472 kts 292°
2026-04-29 18:17 -6.77704 -51.65354 37991 ft 475 kts 292°
2026-04-29 18:18 -6.75516 -51.70518 37990 ft 478 kts 292°
2026-04-29 18:18 -6.73292 -51.75748 37990 ft 478 kts 292°
2026-04-29 18:19 -6.70995 -51.81140 37990 ft 478 kts 292°
2026-04-29 18:19 -6.68636 -51.86675 37990 ft 478 kts 292°
2026-04-29 18:20 -6.66263 -51.92240 37990 ft 478 kts 292°
2026-04-29 18:20 -6.63865 -51.97867 37990 ft 478 kts 292°
2026-04-29 18:21 -6.61443 -52.03544 37990 ft 478 kts 292°
2026-04-29 18:21 -6.58995 -52.09282 37990 ft 478 kts 292°
2026-04-29 18:22 -6.56630 -52.14825 37990 ft 478 kts 292°
2026-04-29 18:22 -6.54250 -52.20398 37990 ft 478 kts 292°
2026-04-29 18:23 -6.51836 -52.26052 37990 ft 478 kts 292°
2026-04-29 18:23 -6.49433 -52.31675 37990 ft 478 kts 292°
2026-04-29 18:24 -6.47009 -52.37349 37990 ft 478 kts 292°
2026-04-29 18:24 -6.44601 -52.42982 37990 ft 478 kts 292°
2026-04-29 18:25 -6.42202 -52.48594 37990 ft 478 kts 292°
2026-04-29 18:25 -6.39745 -52.54339 37990 ft 478 kts 292°
2026-04-29 18:26 -6.37263 -52.60072 37988 ft 478 kts 295°
2026-04-29 18:26 -6.34192 -52.65092 37989 ft 479 kts 307°
2026-04-29 18:27 -6.30214 -52.69293 37992 ft 479 kts 320°
2026-04-29 18:27 -6.25382 -52.72604 37992 ft 479 kts 332°
2026-04-29 18:28 -6.20183 -52.75085 37991 ft 479 kts 336°
2026-04-29 18:28 -6.14672 -52.77578 37990 ft 479 kts 336°
2026-04-29 18:29 -6.08966 -52.80183 37990 ft 479 kts 335°
2026-04-29 18:29 -6.03250 -52.82813 37990 ft 479 kts 335°
2026-04-29 18:30 -5.97613 -52.85415 37990 ft 478 kts 335°
2026-04-29 18:30 -5.91824 -52.88091 37990 ft 478 kts 335°
2026-04-29 18:31 -5.86393 -52.90595 37990 ft 477 kts 335°
2026-04-29 18:31 -5.80989 -52.93081 37990 ft 476 kts 335°
2026-04-29 18:32 -5.75487 -52.95617 37990 ft 475 kts 335°
2026-04-29 18:32 -5.67120 -52.99480 37990 ft 474 kts 335°
2026-04-29 18:33 -5.61577 -53.02040 37990 ft 473 kts 335°
2026-04-29 18:33 -5.55974 -53.04627 37990 ft 472 kts 335°
2026-04-29 18:34 -5.52316 -53.06316 37990 ft 472 kts 335°
2026-04-29 18:34 -5.44989 -53.09697 37990 ft 472 kts 335°
2026-04-29 18:35 -5.40337 -53.11844 37990 ft 472 kts 335°
2026-04-29 18:35 -5.33757 -53.14880 37981 ft 472 kts 335°
2026-04-29 18:36 -5.28023 -53.17524 37962 ft 472 kts 335°
2026-04-29 18:36 -5.22459 -53.20091 37936 ft 472 kts 335°
2026-04-29 18:37 -5.16972 -53.22620 37912 ft 472 kts 335°
2026-04-29 18:37 -5.11445 -53.25168 37890 ft 472 kts 335°
2026-04-29 18:38 -5.05957 -53.27698 37870 ft 472 kts 335°
2026-04-29 18:38 -5.00357 -53.30279 37852 ft 472 kts 335°
2026-04-29 18:39 -4.94734 -53.32870 37841 ft 472 kts 335°
2026-04-29 18:39 -4.89449 -53.35306 37834 ft 473 kts 335°
2026-04-29 18:40 -4.84328 -53.37654 37830 ft 473 kts 335°
2026-04-29 18:40 -4.79026 -53.40084 37828 ft 473 kts 335°
2026-04-29 18:41 -4.68250 -53.45037 37826 ft 473 kts 335°
2026-04-29 18:42 -4.63689 -53.47136 37826 ft 473 kts 335°
2026-04-29 18:42 -4.57287 -53.50083 37826 ft 473 kts 335°
2026-04-29 18:43 -4.51751 -53.52632 37826 ft 473 kts 335°
2026-04-29 18:43 -4.45120 -53.55686 37826 ft 473 kts 335°
2026-04-29 18:44 -4.37703 -53.59101 37826 ft 473 kts 335°
2026-04-29 18:44 -4.32294 -53.61585 37826 ft 473 kts 335°
2026-04-29 18:45 -4.26813 -53.64095 37826 ft 473 kts 335°
2026-04-29 18:45 -4.21667 -53.66467 37826 ft 473 kts 335°
2026-04-29 18:46 -4.16537 -53.68848 37826 ft 473 kts 335°
2026-04-29 18:46 -4.11383 -53.71229 37826 ft 473 kts 335°
2026-04-29 18:47 -4.06026 -53.73694 37826 ft 473 kts 335°
2026-04-29 18:47 -4.00977 -53.76014 37826 ft 473 kts 335°
2026-04-29 18:48 -3.98406 -53.77195 37819 ft 462 kts 335°
2026-04-29 18:48 -3.95804 -53.78389 37820 ft 446 kts 335°
2026-04-29 18:48 -3.90801 -53.80685 37821 ft 444 kts 335°
2026-04-29 18:49 -3.88649 -53.81671 37480 ft 447 kts 335°
2026-04-29 18:49 -3.86650 -53.82585 37078 ft 448 kts 335°
2026-04-29 18:49 -3.84488 -53.83572 36604 ft 448 kts 335°
2026-04-29 18:49 -3.82372 -53.84539 36089 ft 449 kts 335°
2026-04-29 18:50 -3.80218 -53.85524 35553 ft 449 kts 335°
2026-04-29 18:50 -3.77083 -53.86960 34928 ft 445 kts 335°
2026-04-29 18:50 -3.73438 -53.88631 34357 ft 438 kts 335°
2026-04-29 18:50 -3.70934 -53.89780 33965 ft 433 kts 335°
2026-04-29 18:51 -3.68456 -53.90916 33575 ft 429 kts 335°
2026-04-29 18:51 -3.66003 -53.92042 33188 ft 425 kts 335°
2026-04-29 18:51 -3.63598 -53.93145 32809 ft 421 kts 335°
2026-04-29 18:51 -3.61170 -53.94259 32425 ft 417 kts 335°
2026-04-29 18:52 -3.58762 -53.95364 32046 ft 414 kts 335°
2026-04-29 18:52 -3.56355 -53.96468 31665 ft 411 kts 335°
2026-04-29 18:52 -3.54026 -53.97537 31293 ft 408 kts 335°
2026-04-29 18:52 -3.51729 -53.98590 30926 ft 405 kts 335°
2026-04-29 18:53 -3.49448 -53.99636 30557 ft 403 kts 335°
2026-04-29 18:53 -3.47214 -54.00661 30194 ft 400 kts 335°
2026-04-29 18:53 -3.44992 -54.01680 29831 ft 398 kts 335°
2026-04-29 18:53 -3.42800 -54.02685 29470 ft 396 kts 335°
2026-04-29 18:54 -3.40652 -54.03670 29116 ft 394 kts 335°
2026-04-29 18:54 -3.38515 -54.04650 28761 ft 392 kts 335°
2026-04-29 18:54 -3.36421 -54.05611 28412 ft 390 kts 335°
2026-04-29 18:54 -3.34271 -54.06597 28053 ft 389 kts 335°
2026-04-29 18:55 -3.32228 -54.07534 27710 ft 387 kts 335°
2026-04-29 18:55 -3.30080 -54.08519 27349 ft 385 kts 335°
2026-04-29 18:55 -3.27949 -54.09496 26990 ft 384 kts 335°
2026-04-29 18:55 -3.25782 -54.10489 26671 ft 381 kts 335°
2026-04-29 18:56 -3.23718 -54.11433 26357 ft 378 kts 335°
2026-04-29 18:56 -3.21627 -54.12391 26027 ft 376 kts 335°
2026-04-29 18:56 -3.19515 -54.13359 25686 ft 375 kts 335°
2026-04-29 18:56 -3.17381 -54.14336 25340 ft 373 kts 335°
2026-04-29 18:57 -3.15240 -54.15317 24993 ft 371 kts 335°
2026-04-29 18:57 -3.13126 -54.16286 24649 ft 369 kts 335°
2026-04-29 18:57 -3.11052 -54.17236 24312 ft 368 kts 335°
2026-04-29 18:57 -3.08980 -54.18185 23973 ft 366 kts 335°
2026-04-29 18:58 -3.06925 -54.19127 23636 ft 364 kts 336°
2026-04-29 18:58 -3.04918 -54.20046 23307 ft 363 kts 336°
2026-04-29 18:58 -3.02920 -54.20961 22979 ft 361 kts 336°
2026-04-29 18:58 -3.00984 -54.21849 22652 ft 360 kts 336°
2026-04-29 18:59 -2.99078 -54.22723 22330 ft 358 kts 336°
2026-04-29 18:59 -2.97163 -54.23601 22005 ft 357 kts 336°
2026-04-29 18:59 -2.95269 -54.24469 21682 ft 356 kts 336°
2026-04-29 18:59 -2.93367 -54.25340 21359 ft 355 kts 337°
2026-04-29 19:00 -2.91517 -54.26188 21045 ft 353 kts 337°
2026-04-29 19:00 -2.89776 -54.26985 20747 ft 352 kts 337°
2026-04-29 19:00 -2.88173 -54.27716 20473 ft 351 kts 337°
2026-04-29 19:00 -2.86309 -54.28565 20157 ft 350 kts 338°
2026-04-29 19:01 -2.84512 -54.29383 19850 ft 348 kts 338°
2026-04-29 19:01 -2.82729 -54.30196 19547 ft 347 kts 338°
2026-04-29 19:01 -2.80771 -54.31091 19214 ft 346 kts 338°
2026-04-29 19:01 -2.78352 -54.32197 18798 ft 344 kts 338°
2026-04-29 19:02 -2.76543 -54.33024 18487 ft 342 kts 338°
2026-04-29 19:02 -2.75318 -54.33585 18276 ft 341 kts 338°
2026-04-29 19:02 -2.72951 -54.34669 17866 ft 339 kts 338°
2026-04-29 19:02 -2.71165 -54.35486 17556 ft 338 kts 338°
2026-04-29 19:03 -2.69373 -54.36307 17244 ft 337 kts 338°
2026-04-29 19:03 -2.67589 -54.37124 16930 ft 335 kts 338°
2026-04-29 19:03 -2.65819 -54.37934 16619 ft 334 kts 338°
2026-04-29 19:03 -2.64036 -54.38751 16320 ft 332 kts 338°
2026-04-29 19:04 -2.62332 -54.39531 16021 ft 331 kts 338°
2026-04-29 19:04 -2.60559 -54.40343 15705 ft 329 kts 338°
2026-04-29 19:04 -2.58751 -54.41171 15380 ft 328 kts 338°
2026-04-29 19:04 -2.56867 -54.42034 15037 ft 327 kts 338°
2026-04-29 19:05 -2.54893 -54.42937 14676 ft 326 kts 338°
2026-04-29 19:05 -2.53058 -54.43778 14339 ft 324 kts 338°
2026-04-29 19:05 -2.51413 -54.44531 14035 ft 323 kts 338°
2026-04-29 19:05 -2.49678 -54.45326 13714 ft 322 kts 338°
2026-04-29 19:06 -2.48011 -54.46090 13405 ft 321 kts 338°
2026-04-29 19:06 -2.46261 -54.46891 13079 ft 320 kts 338°
2026-04-29 19:06 -2.42654 -54.48541 12405 ft 317 kts 338°
2026-04-29 19:07 -2.40990 -54.49373 12064 ft 319 kts 329°
2026-04-29 19:07 -2.40499 -54.49732 11951 ft 321 kts 322°
2026-04-29 19:07 -2.38869 -54.52305 11436 ft 323 kts 283°
2026-04-29 19:07 -2.38756 -54.54173 11171 ft 318 kts 261°
2026-04-29 19:08 -2.39258 -54.55978 10887 ft 315 kts 248°
2026-04-29 19:08 -2.39885 -54.57587 10604 ft 313 kts 246°
2026-04-29 19:08 -2.40558 -54.59272 10311 ft 312 kts 246°
2026-04-29 19:08 -2.41209 -54.60935 10023 ft 311 kts 247°
2026-04-29 19:09 -2.41842 -54.62595 9805 ft 307 kts 248°
2026-04-29 19:09 -2.42459 -54.64243 9544 ft 305 kts 248°
2026-04-29 19:09 -2.43037 -54.65806 9275 ft 304 kts 248°
2026-04-29 19:09 -2.43618 -54.67396 9005 ft 302 kts 249°
2026-04-29 19:10 -2.44191 -54.68969 8738 ft 300 kts 249°
2026-04-29 19:10 -2.44793 -54.70624 8454 ft 298 kts 249°
2026-04-29 19:10 -2.45391 -54.72270 8169 ft 296 kts 249°
2026-04-29 19:10 -2.46016 -54.73990 7871 ft 295 kts 249°
2026-04-29 19:11 -2.46600 -54.75599 7593 ft 293 kts 249°
2026-04-29 19:11 -2.47200 -54.77250 7308 ft 291 kts 249°
2026-04-29 19:11 -2.47751 -54.78766 7046 ft 290 kts 249°
2026-04-29 19:11 -2.48322 -54.80338 6775 ft 289 kts 249°
2026-04-29 19:12 -2.48881 -54.81877 6510 ft 287 kts 249°
2026-04-29 19:12 -2.49444 -54.83427 6243 ft 286 kts 249°
2026-04-29 19:12 -2.50005 -54.84970 5977 ft 284 kts 249°
2026-04-29 19:12 -2.50201 -54.85510 5884 ft 284 kts 249°
2026-04-29 19:13 -2.51166 -54.88165 5425 ft 280 kts 249°
2026-04-29 19:13 -2.51733 -54.89727 5155 ft 277 kts 249°
2026-04-29 19:13 -2.52303 -54.91297 4885 ft 274 kts 249°
2026-04-29 19:13 -2.52826 -54.92737 4636 ft 271 kts 249°
2026-04-29 19:14 -2.53373 -54.94245 4376 ft 269 kts 249°
2026-04-29 19:14 -2.53897 -54.95849 4081 ft 267 kts 259°
2026-04-29 19:14 -2.53849 -54.97508 3794 ft 263 kts 287°
2026-04-29 19:14 -2.53023 -54.99032 3489 ft 256 kts 316°
2026-04-29 19:15 -2.51657 -54.99980 3393 ft 240 kts 342°
2026-04-29 19:15 -2.50036 -55.00247 3293 ft 223 kts
2026-04-29 19:15 -2.48701 -54.99917 3209 ft 210 kts 28°
2026-04-29 19:15 -2.47635 -54.99191 3128 ft 198 kts 47°
2026-04-29 19:16 -2.46854 -54.98272 3050 ft 189 kts 58°
2026-04-29 19:16 -2.46193 -54.97359 2991 ft 178 kts 51°
2026-04-29 19:16 -2.45548 -54.96586 2923 ft 159 kts 59°
2026-04-29 19:16 -2.45186 -54.95775 2876 ft 139 kts 73°
2026-04-29 19:17 -2.44973 -54.95035 2824 ft 130 kts 76°
2026-04-29 19:17 -2.44789 -54.94264 2801 ft 131 kts 78°
2026-04-29 19:17 -2.44638 -54.93550 2760 ft 131 kts 79°
2026-04-29 19:17 -2.44497 -54.92822 2709 ft 131 kts 79°
2026-04-29 19:18 -2.44359 -54.92071 2607 ft 132 kts 80°
2026-04-29 19:18 -2.44314 -54.91816 2550 ft 131 kts 80°
2026-04-29 19:18 -2.44099 -54.90570 2304 ft 130 kts 81°
2026-04-29 19:18 -2.43972 -54.89819 2155 ft 130 kts 81°
2026-04-29 19:19 -2.43850 -54.89081 2008 ft 129 kts 81°
2026-04-29 19:19 -2.43730 -54.88357 1864 ft 129 kts 81°
2026-04-29 19:19 -2.43611 -54.87632 1719 ft 129 kts 81°
2026-04-29 19:19 -2.43493 -54.86911 1576 ft 128 kts 81°
2026-04-29 19:20 -2.43375 -54.86189 1432 ft 128 kts 81°
2026-04-29 19:20 -2.43255 -54.85458 1285 ft 128 kts 81°
2026-04-29 19:20 -2.43139 -54.84745 1143 ft 127 kts 81°
2026-04-29 19:20 -2.43020 -54.84016 997 ft 127 kts 81°
2026-04-29 19:21 -2.42903 -54.83298 854 ft 127 kts 81°
2026-04-29 19:21 -2.42783 -54.82562 701 ft 126 kts 81°
2026-04-29 19:21 -2.42665 -54.81836 562 ft 126 kts 81°
2026-04-29 19:21 -2.42545 -54.81100 412 ft 126 kts 81°
2026-04-29 19:22 -2.42426 -54.80377 268 ft 126 kts 80°
2026-04-29 19:22 -2.42312 -54.79702 208 ft 104 kts 80°
2026-04-29 19:22 -2.42248 -54.79324 207 ft 35 kts 80°
2026-04-29 19:22 -2.42240 -54.79277 207 ft 0 kts 80°
2026-04-29 19:23 -2.42235 -54.79249 207 ft 13 kts 81°
2026-04-29 19:23 -2.42223 -54.79175 207 ft 14 kts 81°
2026-04-29 19:23 -2.42210 -54.79090 207 ft 15 kts 81°
2026-04-29 19:23 -2.42195 -54.78997 207 ft 16 kts 81°
2026-04-29 19:24 -2.42180 -54.78902 207 ft 15 kts 81°
2026-04-29 19:24 -2.42168 -54.78823 207 ft 13 kts 81°
2026-04-29 19:24 -2.42177 -54.78763 207 ft 10 kts 123°
2026-04-29 19:24 -2.42216 -54.78721 207 ft 11 kts 136°
2026-04-29 19:25 -2.42230 -54.78707 207 ft 0 kts 137°
2026-04-29 19:25 -2.42231 -54.78706 207 ft 1 kts 137°
2026-04-29 19:25 -2.42240 -54.78698 207 ft 3 kts 137°
2026-04-29 19:25 -2.42256 -54.78683 207 ft 5 kts 137°
2026-04-29 19:26 -2.42281 -54.78659 207 ft 7 kts 137°
2026-04-29 19:26 -2.42312 -54.78630 207 ft 9 kts 136°
2026-04-29 19:26 -2.42334 -54.78610 207 ft 1 kts 138°
2026-04-29 19:26 -2.42337 -54.78607 207 ft 0 kts 138°
2026-04-29 19:27 -2.42344 -54.78602 207 ft 3 kts 140°
2026-04-29 19:27 -2.42360 -54.78592 207 ft 5 kts 164°
2026-04-29 19:27 -2.42383 -54.78587 207 ft 4 kts 158°
2026-04-29 19:28 -2.42398 -54.78577 207 ft 3 kts 137°
2026-04-29 19:28 -2.42408 -54.78567 207 ft 2 kts 133°
2026-04-29 19:28 -2.42412 -54.78563 207 ft 2 kts 133°
2026-04-29 19:28 -2.42414 -54.78560 207 ft 0 kts 133°